QPF
0.00 0.00 0.00 0.00 0.00 0.00 0.00 0.00 0.00 0.00 0.00 0.00 0.00 0.00 0.00 0.00 0.00 0.00 0.00 0.00 0.00 0.00 0.00 0.00 0.00 0.00 0.00 0.01 0.01 0.04 0.08 0.10 0.14 0.17 0.18 0.17 0.16 0.15 0.15 0.13 0.11 0.11 0.10 0.11
0.00 0.00 0.00 0.00 0.00 0.00 0.00 0.00 0.00 0.00 0.00 0.00 0.00 0.00 0.00 0.00 0.00 0.00 0.00 0.00 0.00 0.00 0.00 0.00 0.00 0.01 0.01 0.01 0.02 0.04 0.06 0.09 0.10 0.13 0.17 0.18 0.15 0.14 0.13 0.11 0.10 0.11 0.11 0.11
0.00 0.00 0.00 0.00 0.00 0.00 0.00 0.00 0.00 0.00 0.00 0.00 0.00 0.00 0.00 0.00 0.00 0.00 0.00 0.00 0.00 0.00 0.01 0.01 0.01 0.01 0.01 0.01 0.02 0.03 0.04 0.06 0.05 0.07 0.10 0.15 0.15 0.14 0.15 0.12 0.09 0.08 0.08 0.08
0.00 0.00 0.00 0.00 0.00 0.00 0.00 0.00 0.00 0.00 0.00 0.00 0.00 0.00 0.00 0.00 0.00 0.00 0.00 0.00 0.00 0.01 0.01 0.01 0.01 0.01 0.01 0.01 0.01 0.02 0.03 0.04 0.04 0.05 0.07 0.10 0.13 0.14 0.15 0.14 0.11 0.09 0.07 0.07
0.00 0.00 0.00 0.00 0.00 0.00 0.00 0.00 0.00 0.00 0.00 0.00 0.00 0.00 0.00 0.00 0.00 0.01 0.00 0.00 0.00 0.01 0.02 0.02 0.02 0.01 0.01 0.01 0.01 0.02 0.03 0.03 0.04 0.05 0.06 0.07 0.08 0.11 0.13 0.11 0.10 0.09 0.08 0.07
0.00 0.00 0.01 0.00 0.00 0.00 0.00 0.00 0.00 0.00 0.00 0.00 0.00 0.01 0.01 0.01 0.01 0.01 0.01 0.01 0.01 0.01 0.03 0.04 0.04 0.02 0.01 0.02 0.02 0.02 0.03 0.03 0.05 0.07 0.06 0.06 0.07 0.09 0.09 0.09 0.11 0.10 0.09 0.09
0.00 0.00 0.00 0.00 0.00 0.00 0.01 0.00 0.00 0.00 0.00 0.00 0.00 0.01 0.01 0.01 0.01 0.02 0.02 0.02 0.02 0.02 0.03 0.03 0.03 0.03 0.04 0.04 0.03 0.04 0.03 0.03 0.05 0.06 0.07 0.08 0.10 0.12 0.13 0.14 0.16 0.18 0.17 0.16
0.00 0.00 0.00 0.00 0.00 0.01 0.01 0.00 0.00 0.00 0.00 0.00 0.01 0.00 0.00 0.00 0.01 0.02 0.02 0.02 0.02 0.02 0.02 0.03 0.03 0.03 0.04 0.04 0.04 0.04 0.03 0.04 0.04 0.05 0.06 0.08 0.12 0.17 0.19 0.18 0.19 0.21 0.20 0.17
0.00 0.00 0.00 0.00 0.01 0.01 0.00 0.00 0.00 0.00 0.00 0.01 0.01 0.00 0.00 0.00 0.01 0.01 0.01 0.02 0.03 0.02 0.02 0.02 0.02 0.02 0.03 0.04 0.05 0.06 0.07 0.06 0.07 0.09 0.09 0.10 0.13 0.17 0.18 0.16 0.14 0.12 0.10 0.09
0.01 0.01 0.01 0.01 0.01 0.01 0.00 0.00 0.01 0.01 0.00 0.00 0.00 0.00 0.00 0.00 0.00 0.01 0.01 0.03 0.03 0.03 0.02 0.02 0.02 0.03 0.03 0.04 0.06 0.09 0.11 0.13 0.14 0.14 0.14 0.14 0.15 0.15 0.15 0.15 0.12 0.10 0.09 0.09
0.01 0.01 0.01 0.01 0.01 0.01 0.01 0.00 0.01 0.01 0.01 0.01 0.01 0.01 0.00 0.00 0.00 0.00 0.01 0.02 0.03 0.03 0.03 0.03 0.03 0.04 0.05 0.06 0.09 0.11 0.11 0.13 0.21 0.24 0.20 0.16 0.16 0.18 0.15 0.15 0.15 0.15 0.14 0.14
0.01 0.01 0.01 0.02 0.02 0.02 0.01 0.01 0.01 0.01 0.01 0.01 0.01 0.01 0.00 0.01 0.01 0.01 0.01 0.02 0.02 0.03 0.05 0.07 0.07 0.06 0.06 0.07 0.09 0.10 0.11 0.13 0.15 0.16 0.17 0.19 0.18 0.18 0.21 0.21 0.23 0.22 0.21 0.19
0.01 0.00 0.01 0.01 0.02 0.02 0.02 0.02 0.02 0.02 0.02 0.02 0.01 0.01 0.00 0.01 0.01 0.01 0.02 0.03 0.03 0.03 0.05 0.06 0.06 0.07 0.06 0.05 0.08 0.10 0.11 0.12 0.11 0.10 0.11 0.14 0.15 0.14 0.15 0.15 0.15 0.15 0.15 0.13
0.00 0.00 0.01 0.01 0.02 0.02 0.02 0.03 0.03 0.02 0.02 0.01 0.01 0.01 0.01 0.01 0.01 0.01 0.02 0.02 0.02 0.03 0.04 0.05 0.05 0.08 0.09 0.06 0.06 0.07 0.08 0.10 0.10 0.09 0.08 0.08 0.08 0.07 0.07 0.08 0.08 0.08 0.08 0.07
0.00 0.01 0.02 0.02 0.02 0.01 0.03 0.03 0.03 0.03 0.02 0.01 0.01 0.01 0.01 0.02 0.02 0.02 0.02 0.02 0.02 0.02 0.03 0.04 0.06 0.09 0.13 0.13 0.09 0.07 0.08 0.09 0.09 0.10 0.09 0.09 0.10 0.09 0.08 0.07 0.06 0.05 0.04 0.04
0.01 0.02 0.02 0.02 0.02 0.02 0.03 0.03 0.03 0.03 0.02 0.02 0.02 0.03 0.04 0.03 0.03 0.03 0.03 0.03 0.02 0.02 0.02 0.03 0.04 0.05 0.07 0.12 0.15 0.15 0.14 0.15 0.13 0.13 0.13 0.12 0.11 0.08 0.06 0.04 0.04 0.03 0.02 0.02
0.02 0.02 0.02 0.02 0.02 0.02 0.03 0.04 0.03 0.03 0.03 0.03 0.03 0.03 0.03 0.03 0.03 0.03 0.04 0.04 0.02 0.02 0.02 0.02 0.03 0.03 0.04 0.06 0.09 0.12 0.12 0.13 0.13 0.11 0.11 0.11 0.09 0.06 0.04 0.02 0.01 0.01 0.01 0.00
0.02 0.02 0.02 0.03 0.04 0.03 0.04 0.04 0.03 0.03 0.03 0.03 0.03 0.02 0.02 0.03 0.04 0.04 0.05 0.04 0.03 0.02 0.02 0.01 0.02 0.02 0.03 0.04 0.06 0.08 0.10 0.09 0.09 0.08 0.07 0.06 0.06 0.04 0.03 0.02 0.01 0.00 0.00 0.00
0.02 0.03 0.04 0.05 0.05 0.04 0.04 0.06 0.05 0.05 0.04 0.04 0.03 0.03 0.02 0.02 0.03 0.04 0.04 0.03 0.03 0.03 0.03 0.02 0.03 0.02 0.02 0.03 0.04 0.04 0.06 0.07 0.07 0.07 0.06 0.06 0.05 0.03 0.02 0.02 0.01 0.00 0.00 0.00
0.04 0.04 0.05 0.06 0.05 0.05 0.05 0.06 0.06 0.05 0.05 0.04 0.04 0.04 0.04 0.04 0.03 0.04 0.03 0.02 0.03 0.03 0.02 0.02 0.01 0.01 0.02 0.02 0.02 0.03 0.03 0.03 0.03 0.03 0.03 0.03 0.03 0.02 0.01 0.01 0.00 0.00 0.00 0.00
0.07 0.07 0.07 0.07 0.07 0.07 0.06 0.05 0.04 0.05 0.06 0.06 0.05 0.05 0.06 0.05 0.04 0.04 0.03 0.03 0.02 0.01 0.01 0.01 0.01 0.01 0.02 0.03 0.02 0.01 0.02 0.02 0.02 0.03 0.03 0.02 0.01 0.01 0.01 0.00 0.00 0.00 0.00 0.00
0.09 0.08 0.07 0.07 0.08 0.08 0.06 0.04 0.03 0.04 0.05 0.06 0.05 0.05 0.06 0.05 0.05 0.04 0.04 0.03 0.02 0.01 0.01 0.01 0.01 0.01 0.01 0.01 0.01 0.01 0.01 0.01 0.02 0.02 0.02 0.01 0.01 0.01 0.01 0.00 0.00 0.00 0.00 0.00
0.08 0.07 0.06 0.06 0.07 0.07 0.06 0.05 0.04 0.04 0.04 0.05 0.05 0.06 0.06 0.05 0.04 0.03 0.03 0.03 0.02 0.02 0.02 0.01 0.01 0.01 0.01 0.00 0.00 0.00 0.00 0.00 0.00 0.00 0.00 0.00 0.00 0.00 0.00 0.00 0.00 0.00 0.00 0.00
0.10 0.08 0.07 0.06 0.06 0.06 0.06 0.06 0.06 0.05 0.04 0.04 0.03 0.04 0.04 0.04 0.03 0.03 0.03 0.04 0.04 0.03 0.03 0.02 0.01 0.00 0.00 0.00 0.00 0.00 0.00 0.00 0.00 0.00 0.00 0.00 0.00 0.00 0.00 0.00 0.00 0.00 0.00 0.00
0.10 0.08 0.07 0.06 0.05 0.05 0.05 0.05 0.05 0.04 0.03 0.02 0.03 0.03 0.03 0.04 0.04 0.03 0.03 0.03 0.03 0.02 0.02 0.01 0.01 0.01 0.00 0.00 0.00 0.00 0.00 0.00 0.00 0.00 0.00 0.00 0.00 0.00 0.00 0.00 0.00 0.00 0.00 0.00
0.07 0.06 0.05 0.05 0.05 0.04 0.04 0.04 0.03 0.02 0.02 0.02 0.03 0.04 0.03 0.03 0.04 0.03 0.03 0.02 0.02 0.02 0.02 0.01 0.00 0.00 0.00 0.00 0.00 0.01 0.00 0.00 0.00 0.00 0.00 0.00 0.00 0.00 0.00 0.00 0.00 0.00 0.00 0.00
0.04 0.03 0.03 0.03 0.03 0.04 0.04 0.03 0.03 0.02 0.02 0.03 0.03 0.03 0.02 0.02 0.02 0.02 0.02 0.02 0.02 0.02 0.01 0.01 0.00 0.00 0.00 0.00 0.00 0.00 0.00 0.00 0.00 0.00 0.00 0.00 0.00 0.00 0.00 0.00 0.00 0.00 0.00 0.00
MSLP
1007.16 1007.33 1007.44 1007.49 1007.47 1007.39 1007.24 1007.04 1006.82 1006.60 1006.40 1006.26 1006.19 1006.21 1006.32 1006.52 1006.80 1007.15 1007.56 1007.99 1008.43 1008.86 1009.26 1009.59 1009.84 1009.98 1009.99 1009.89 1009.66 1009.34 1008.96 1008.58 1008.24 1008.01 1007.93 1008.03 1008.32 1008.80 1009.45 1010.20 1011.03 1011.89 1012.73 1013.54
1007.16 1007.27 1007.30 1007.24 1007.09 1006.89 1006.64 1006.38 1006.14 1005.95 1005.82 1005.78 1005.83 1005.97 1006.17 1006.44 1006.76 1007.12 1007.51 1007.91 1008.32 1008.73 1009.12 1009.48 1009.77 1009.98 1010.09 1010.07 1009.94 1009.70 1009.39 1009.06 1008.75 1008.53 1008.45 1008.55 1008.83 1009.31 1009.94 1010.70 1011.54 1012.42 1013.29 1014.14
1007.23 1007.29 1007.25 1007.10 1006.86 1006.55 1006.23 1005.92 1005.67 1005.51 1005.45 1005.50 1005.65 1005.88 1006.17 1006.49 1006.83 1007.18 1007.53 1007.88 1008.24 1008.61 1008.98 1009.35 1009.69 1009.98 1010.20 1010.31 1010.31 1010.20 1010.02 1009.78 1009.56 1009.39 1009.34 1009.44 1009.72 1010.18 1010.80 1011.54 1012.38 1013.26 1014.14 1015.00
1007.31 1007.35 1007.26 1007.04 1006.73 1006.36 1005.98 1005.64 1005.40 1005.27 1005.27 1005.40 1005.65 1005.97 1006.32 1006.69 1007.05 1007.38 1007.68 1007.97 1008.26 1008.57 1008.91 1009.28 1009.65 1010.02 1010.34 1010.60 1010.75 1010.81 1010.78 1010.69 1010.58 1010.50 1010.50 1010.64 1010.92 1011.37 1011.96 1012.68 1013.49 1014.36 1015.23 1016.10
1007.36 1007.39 1007.27 1007.01 1006.66 1006.25 1005.85 1005.51 1005.28 1005.20 1005.27 1005.48 1005.81 1006.22 1006.64 1007.05 1007.42 1007.73 1007.99 1008.21 1008.43 1008.67 1008.96 1009.30 1009.69 1010.11 1010.53 1010.91 1011.22 1011.46 1011.60 1011.68 1011.71 1011.75 1011.84 1012.02 1012.32 1012.76 1013.34 1014.03 1014.81 1015.65 1016.50 1017.35
1007.36 1007.37 1007.23 1006.97 1006.60 1006.18 1005.79 1005.47 1005.28 1005.25 1005.39 1005.69 1006.11 1006.59 1007.08 1007.53 1007.92 1008.22 1008.43 1008.59 1008.73 1008.89 1009.11 1009.40 1009.78 1010.23 1010.71 1011.20 1011.67 1012.06 1012.39 1012.64 1012.84 1013.01 1013.21 1013.46 1013.80 1014.26 1014.82 1015.49 1016.24 1017.04 1017.86 1018.67
1007.29 1007.29 1007.16 1006.89 1006.54 1006.15 1005.78 1005.51 1005.37 1005.40 1005.61 1005.99 1006.48 1007.03 1007.58 1008.08 1008.48 1008.77 1008.95 1009.05 1009.12 1009.20 1009.34 1009.57 1009.91 1010.35 1010.88 1011.45 1012.03 1012.58 1013.07 1013.50 1013.86 1014.19 1014.51 1014.86 1015.26 1015.74 1016.31 1016.97 1017.69 1018.45 1019.22 1019.98
1007.20 1007.19 1007.06 1006.82 1006.50 1006.16 1005.84 1005.62 1005.54 1005.63 1005.91 1006.34 1006.89 1007.50 1008.10 1008.63 1009.04 1009.33 1009.48 1009.53 1009.53 1009.54 1009.60 1009.76 1010.05 1010.47 1011.00 1011.63 1012.30 1012.97 1013.62 1014.21 1014.74 1015.22 1015.68 1016.13 1016.61 1017.14 1017.73 1018.38 1019.07 1019.79 1020.52 1021.23
1007.12 1007.11 1007.00 1006.79 1006.52 1006.24 1005.98 1005.82 1005.79 1005.94 1006.25 1006.73 1007.31 1007.95 1008.58 1009.12 1009.55 1009.83 1009.97 1009.99 1009.94 1009.88 1009.87 1009.97 1010.20 1010.59 1011.12 1011.78 1012.52 1013.29 1014.06 1014.79 1015.48 1016.11 1016.70 1017.26 1017.82 1018.41 1019.02 1019.67 1020.34 1021.02 1021.70 1022.34
1007.10 1007.09 1007.01 1006.85 1006.64 1006.41 1006.22 1006.11 1006.13 1006.31 1006.65 1007.13 1007.72 1008.37 1009.00 1009.55 1009.98 1010.26 1010.39 1010.40 1010.32 1010.23 1010.18 1010.23 1010.42 1010.77 1011.29 1011.96 1012.74 1013.58 1014.45 1015.30 1016.11 1016.87 1017.58 1018.25 1018.89 1019.52 1020.16 1020.80 1021.46 1022.10 1022.72 1023.30
1007.15 1007.16 1007.11 1007.00 1006.86 1006.69 1006.56 1006.50 1006.55 1006.73 1007.07 1007.54 1008.11 1008.74 1009.35 1009.89 1010.32 1010.62 1010.76 1010.78 1010.71 1010.62 1010.56 1010.59 1010.76 1011.09 1011.60 1012.27 1013.07 1013.96 1014.88 1015.82 1016.72 1017.57 1018.37 1019.11 1019.81 1020.49 1021.14 1021.77 1022.40 1023.00 1023.57 1024.09
1007.25 1007.27 1007.27 1007.22 1007.14 1007.04 1006.96 1006.94 1007.00 1007.19 1007.50 1007.94 1008.48 1009.06 1009.65 1010.18 1010.62 1010.94 1011.12 1011.19 1011.16 1011.11 1011.07 1011.12 1011.29 1011.62 1012.12 1012.78 1013.58 1014.47 1015.43 1016.39 1017.34 1018.25 1019.10 1019.89 1020.62 1021.30 1021.95 1022.57 1023.16 1023.72 1024.23 1024.69
1007.31 1007.37 1007.42 1007.44 1007.42 1007.39 1007.36 1007.37 1007.45 1007.62 1007.91 1008.31 1008.81 1009.36 1009.93 1010.46 1010.92 1011.28 1011.53 1011.66 1011.72 1011.74 1011.77 1011.86 1012.05 1012.39 1012.87 1013.51 1014.29 1015.16 1016.10 1017.06 1018.01 1018.92 1019.78 1020.57 1021.30 1021.98 1022.61 1023.20 1023.75 1024.25 1024.71 1025.11
1007.26 1007.37 1007.47 1007.55 1007.61 1007.64 1007.66 1007.71 1007.82 1008.00 1008.27 1008.65 1009.12 1009.65 1010.21 1010.76 1011.27 1011.69 1012.02 1012.26 1012.42 1012.53 1012.64 1012.79 1013.02 1013.36 1013.83 1014.43 1015.15 1015.97 1016.85 1017.76 1018.67 1019.55 1020.38 1021.15 1021.86 1022.51 1023.10 1023.65 1024.15 1024.61 1025.02 1025.37
1007.02 1007.17 1007.34 1007.49 1007.62 1007.72 1007.82 1007.92 1008.07 1008.27 1008.56 1008.94 1009.41 1009.95 1010.54 1011.13 1011.69 1012.19 1012.63 1012.97 1013.24 1013.46 1013.65 1013.86 1014.12 1014.46 1014.89 1015.44 1016.09 1016.82 1017.61 1018.44 1019.27 1020.09 1020.86 1021.58 1022.25 1022.86 1023.42 1023.94 1024.40 1024.82 1025.19 1025.50
1006.57 1006.77 1007.00 1007.22 1007.43 1007.62 1007.80 1007.98 1008.19 1008.46 1008.79 1009.21 1009.71 1010.29 1010.92 1011.57 1012.20 1012.80 1013.32 1013.77 1014.15 1014.45 1014.72 1014.97 1015.24 1015.56 1015.95 1016.42 1016.97 1017.60 1018.28 1019.00 1019.74 1020.47 1021.18 1021.85 1022.48 1023.06 1023.59 1024.07 1024.51 1024.90 1025.25 1025.54
1005.95 1006.20 1006.49 1006.78 1007.08 1007.36 1007.64 1007.92 1008.23 1008.58 1008.99 1009.48 1010.05 1010.69 1011.38 1012.09 1012.80 1013.47 1014.08 1014.62 1015.07 1015.44 1015.75 1016.02 1016.28 1016.55 1016.87 1017.25 1017.70 1018.21 1018.78 1019.39 1020.04 1020.69 1021.33 1021.96 1022.55 1023.10 1023.62 1024.09 1024.52 1024.90 1025.24 1025.53
1005.28 1005.57 1005.91 1006.28 1006.65 1007.04 1007.43 1007.82 1008.24 1008.70 1009.21 1009.79 1010.44 1011.15 1011.91 1012.68 1013.45 1014.18 1014.85 1015.43 1015.92 1016.32 1016.64 1016.90 1017.13 1017.35 1017.59 1017.87 1018.21 1018.62 1019.08 1019.60 1020.16 1020.75 1021.35 1021.94 1022.51 1023.06 1023.58 1024.05 1024.48 1024.87 1025.21 1025.51
1004.72 1005.04 1005.42 1005.85 1006.31 1006.79 1007.28 1007.79 1008.33 1008.90 1009.52 1010.20 1010.93 1011.70 1012.51 1013.33 1014.13 1014.89 1015.57 1016.17 1016.66 1017.05 1017.35 1017.58 1017.76 1017.92 1018.08 1018.28 1018.54 1018.85 1019.23 1019.68 1020.18 1020.73 1021.30 1021.88 1022.45 1023.00 1023.53 1024.02 1024.46 1024.86 1025.21 1025.52
1004.43 1004.76 1005.17 1005.65 1006.18 1006.74 1007.33 1007.94 1008.58 1009.25 1009.96 1010.71 1011.51 1012.33 1013.16 1013.99 1014.79 1015.54 1016.21 1016.78 1017.25 1017.61 1017.87 1018.06 1018.19 1018.30 1018.41 1018.55 1018.74 1019.00 1019.33 1019.74 1020.21 1020.73 1021.29 1021.87 1022.45 1023.01 1023.55 1024.05 1024.50 1024.90 1025.26 1025.56
1004.51 1004.85 1005.28 1005.79 1006.36 1006.98 1007.63 1008.32 1009.03 1009.78 1010.55 1011.35 1012.17 1013.00 1013.83 1014.64 1015.41 1016.12 1016.74 1017.27 1017.69 1018.01 1018.24 1018.40 1018.50 1018.58 1018.66 1018.77 1018.94 1019.18 1019.49 1019.88 1020.34 1020.85 1021.41 1021.99 1022.57 1023.13 1023.67 1024.16 1024.61 1025.00 1025.34 1025.63
1005.01 1005.35 1005.79 1006.31 1006.90 1007.54 1008.23 1008.95 1009.70 1010.47 1011.26 1012.06 1012.88 1013.69 1014.48 1015.24 1015.95 1016.60 1017.17 1017.65 1018.03 1018.31 1018.52 1018.66 1018.76 1018.85 1018.94 1019.06 1019.24 1019.48 1019.80 1020.19 1020.64 1021.15 1021.70 1022.26 1022.83 1023.37 1023.88 1024.35 1024.77 1025.12 1025.43 1025.69
1005.90 1006.23 1006.66 1007.17 1007.75 1008.39 1009.07 1009.78 1010.52 1011.28 1012.05 1012.82 1013.59 1014.35 1015.08 1015.77 1016.41 1017.00 1017.50 1017.94 1018.29 1018.56 1018.77 1018.93 1019.06 1019.17 1019.30 1019.47 1019.68 1019.95 1020.28 1020.67 1021.12 1021.62 1022.14 1022.67 1023.19 1023.69 1024.15 1024.56 1024.92 1025.23 1025.48 1025.69
1007.07 1007.39 1007.79 1008.27 1008.82 1009.43 1010.07 1010.75 1011.44 1012.15 1012.86 1013.57 1014.27 1014.95 1015.60 1016.21 1016.79 1017.30 1017.77 1018.17 1018.51 1018.79 1019.03 1019.23 1019.41 1019.59 1019.78 1019.99 1020.25 1020.54 1020.89 1021.28 1021.71 1022.17 1022.64 1023.11 1023.56 1023.99 1024.37 1024.71 1025.00 1025.24 1025.43 1025.59
1008.38 1008.68 1009.06 1009.50 1010.00 1010.55 1011.14 1011.75 1012.37 1013.01 1013.64 1014.27 1014.88 1015.47 1016.04 1016.58 1017.08 1017.55 1017.98 1018.37 1018.71 1019.02 1019.30 1019.56 1019.81 1020.05 1020.31 1020.57 1020.87 1021.18 1021.53 1021.90 1022.28 1022.68 1023.08 1023.47 1023.83 1024.17 1024.47 1024.73 1024.95 1025.12 1025.26 1025.36
1009.69 1009.98 1010.32 1010.73 1011.17 1011.66 1012.17 1012.71 1013.25 1013.80 1014.35 1014.89 1015.41 1015.92 1016.41 1016.88 1017.33 1017.76 1018.17 1018.55 1018.91 1019.26 1019.59 1019.90 1020.21 1020.51 1020.81 1021.11 1021.42 1021.74 1022.06 1022.39 1022.71 1023.03 1023.34 1023.64 1023.91 1024.16 1024.38 1024.57 1024.72 1024.84 1024.93 1025.00
1010.90 1011.17 1011.49 1011.85 1012.25 1012.67 1013.12 1013.58 1014.04 1014.51 1014.98 1015.44 1015.88 1016.32 1016.75 1017.16 1017.57 1017.96 1018.35 1018.74 1019.11 1019.48 1019.84 1020.20 1020.54 1020.87 1021.20 1021.51 1021.81 1022.10 1022.38 1022.64 1022.89 1023.12 1023.34 1023.55 1023.74 1023.91 1024.07 1024.20 1024.32 1024.42 1024.50 1024.55
Thickness
5769 5775 5775 5772 5771 5771 5770 5777 5773 5777 5779 5782 5782 5780 5779 5778 5775 5772 5769 5766 5763 5760 5757 5754 5752 5750 5748 5746 5744 5741 5737 5734 5731 5728 5725 5722 5719 5717 5715 5714 5712 5710 5709 5707
5752 5763 5765 5762 5768 5769 5769 5774 5775 5777 5775 5783 5781 5779 5774 5773 5770 5766 5764 5762 5760 5757 5754 5751 5749 5747 5745 5743 5741 5738 5734 5732 5729 5726 5723 5719 5716 5714 5712 5710 5708 5706 5704 5702
5741 5752 5750 5743 5760 5765 5765 5771 5773 5769 5773 5775 5770 5767 5766 5766 5766 5763 5761 5759 5756 5754 5752 5749 5747 5745 5742 5741 5739 5735 5732 5729 5726 5723 5719 5716 5713 5710 5707 5705 5703 5700 5698 5696
5738 5732 5719 5752 5766 5767 5763 5765 5770 5769 5769 5768 5764 5760 5760 5762 5760 5758 5757 5755 5753 5752 5749 5747 5745 5743 5741 5739 5736 5732 5728 5725 5723 5719 5715 5712 5708 5704 5701 5699 5696 5693 5690 5688
5728 5722 5729 5738 5751 5756 5751 5750 5762 5760 5759 5758 5757 5753 5750 5751 5753 5752 5752 5750 5749 5748 5747 5743 5741 5739 5737 5733 5731 5727 5723 5720 5718 5715 5711 5707 5702 5698 5695 5692 5689 5685 5682 5679
5717 5713 5712 5734 5746 5752 5747 5736 5752 5752 5749 5750 5749 5747 5740 5739 5741 5741 5741 5741 5741 5741 5740 5736 5735 5734 5730 5727 5724 5720 5718 5715 5712 5709 5705 5700 5696 5691 5688 5684 5680 5676 5672 5668
5707 5707 5719 5729 5736 5738 5721 5728 5739 5743 5742 5742 5739 5737 5732 5731 5729 5730 5730 5730 5731 5731 5729 5727 5727 5726 5722 5719 5716 5713 5711 5707 5704 5700 5696 5692 5688 5683 5679 5674 5669 5665 5661 5656
5700 5697 5704 5717 5724 5722 5720 5726 5730 5731 5732 5729 5726 5723 5721 5719 5718 5718 5718 5719 5719 5718 5717 5717 5717 5715 5712 5708 5707 5704 5701 5697 5693 5689 5687 5683 5678 5674 5669 5665 5659 5652 5647 5643
5698 5696 5698 5707 5710 5712 5716 5716 5718 5720 5721 5718 5714 5711 5709 5707 5706 5706 5706 5706 5707 5707 5705 5704 5705 5705 5701 5698 5696 5694 5689 5685 5681 5677 5673 5671 5668 5664 5659 5655 5650 5644 5639 5634
5682 5686 5691 5696 5700 5702 5705 5705 5709 5710 5710 5709 5704 5702 5699 5697 5695 5695 5695 5696 5696 5695 5693 5691 5691 5691 5690 5688 5686 5683 5678 5673 5668 5664 5660 5657 5654 5651 5648 5644 5640 5635 5630 5624
5670 5675 5680 5683 5686 5689 5692 5695 5697 5698 5699 5698 5695 5692 5690 5687 5686 5685 5684 5684 5684 5683 5680 5679 5679 5679 5677 5676 5675 5670 5665 5660 5655 5650 5646 5641 5636 5632 5631 5628 5627 5624 5619 5614
5663 5667 5670 5671 5675 5679 5680 5682 5684 5684 5685 5685 5684 5682 5680 5677 5675 5674 5673 5673 5672 5671 5669 5667 5667 5666 5665 5664 5663 5659 5653 5648 5644 5638 5632 5628 5623 5614 5608 5608 5605 5604 5602 5600
5656 5660 5663 5663 5666 5668 5669 5670 5672 5673 5673 5672 5672 5671 5669 5667 5665 5664 5663 5662 5661 5659 5657 5656 5654 5653 5652 5651 5650 5646 5642 5637 5632 5626 5622 5617 5612 5607 5599 5590 5587 5585 5583 5580
5646 5647 5649 5652 5654 5657 5658 5659 5661 5662 5661 5661 5660 5659 5658 5656 5655 5653 5651 5650 5649 5647 5646 5644 5642 5639 5639 5638 5636 5633 5628 5623 5619 5614 5610 5606 5602 5597 5593 5588 5581 5571 5564 5561
5636 5639 5641 5643 5644 5646 5648 5649 5649 5648 5648 5647 5648 5647 5647 5645 5642 5640 5639 5638 5637 5636 5634 5632 5630 5627 5627 5626 5623 5620 5615 5610 5606 5602 5598 5594 5591 5586 5582 5576 5571 5563 5556 5548
5628 5630 5632 5632 5633 5635 5637 5639 5639 5637 5637 5637 5637 5636 5635 5634 5631 5629 5628 5627 5627 5625 5623 5621 5618 5616 5615 5614 5611 5607 5602 5598 5595 5591 5588 5583 5579 5576 5571 5567 5562 5556 5551 5545
5618 5620 5622 5624 5625 5627 5629 5630 5630 5629 5628 5627 5626 5625 5624 5622 5619 5617 5616 5616 5615 5613 5612 5610 5607 5606 5605 5604 5602 5598 5593 5587 5584 5583 5580 5575 5571 5567 5563 5558 5554 5549 5543 5536
5614 5616 5618 5619 5619 5620 5619 5619 5620 5620 5618 5617 5616 5616 5614 5612 5610 5608 5607 5606 5604 5602 5600 5599 5598 5597 5596 5594 5593 5590 5586 5582 5579 5575 5570 5566 5562 5558 5554 5549 5544 5539 5533 5526
5607 5608 5609 5610 5611 5610 5610 5610 5610 5609 5608 5607 5607 5605 5603 5601 5600 5599 5598 5597 5595 5593 5589 5588 5586 5588 5586 5583 5583 5581 5578 5575 5570 5566 5561 5553 5553 5549 5545 5541 5536 5531 5526 5520
5599 5601 5601 5601 5601 5602 5602 5601 5601 5599 5598 5598 5597 5595 5593 5592 5592 5590 5590 5588 5587 5584 5581 5580 5579 5578 5576 5574 5574 5573 5570 5567 5563 5558 5554 5550 5545 5541 5536 5532 5527 5522 5517 5511
5591 5592 5592 5592 5592 5593 5593 5593 5593 5591 5590 5590 5589 5588 5586 5584 5584 5582 5581 5578 5575 5574 5573 5571 5572 5571 5569 5566 5566 5566 5562 5558 5554 5550 5546 5542 5538 5533 5528 5523 5518 5513 5507 5502
5583 5584 5584 5585 5585 5584 5585 5586 5586 5584 5583 5582 5581 5580 5579 5577 5576 5574 5573 5572 5568 5566 5568 5568 5566 5562 5560 5559 5560 5557 5553 5549 5545 5541 5537 5533 5529 5524 5519 5514 5510 5505 5500 5495
5576 5577 5578 5578 5578 5578 5578 5578 5578 5577 5576 5576 5575 5574 5574 5572 5571 5570 5566 5564 5564 5561 5563 5559 5553 5551 5550 5552 5551 5548 5544 5541 5537 5533 5530 5526 5521 5517 5512 5507 5503 5498 5493 5488
5571 5572 5572 5572 5573 5572 5571 5570 5570 5570 5570 5569 5568 5568 5568 5567 5565 5564 5560 5555 5555 5554 5553 5545 5543 5542 5541 5545 5543 5540 5537 5533 5530 5527 5523 5519 5515 5510 5505 5501 5496 5491 5486 5481
5567 5567 5567 5567 5567 5567 5565 5564 5564 5564 5565 5563 5563 5562 5563 5563 5561 5558 5554 5550 5545 5545 5543 5537 5535 5535 5537 5537 5535 5532 5528 5526 5524 5520 5516 5511 5507 5503 5498 5494 5490 5485 5481 5477
5564 5564 5564 5564 5564 5563 5564 5563 5563 5563 5562 5560 5559 5558 5557 5555 5553 5550 5547 5544 5541 5538 5537 5534 5532 5530 5531 5529 5527 5524 5521 5517 5514 5511 5508 5505 5500 5496 5492 5488 5483 5480 5476 5472
5560 5560 5560 5560 5560 5561 5562 5561 5561 5559 5558 5557 5555 5553 5552 5550 5547 5545 5542 5540 5537 5535 5533 5531 5529 5528 5526 5524 5521 5518 5515 5511 5508 5505 5501 5498 5494 5490 5486 5481 5478 5474 5471 5468